Location: �clusier
(49.9361°N, 2.7869°E)
Time: 20:26:25
(UTC+00:00)

Centaur D AC-29 - Pass Details

Date: 30 October 2021
Orbit: 563 x 36274 km, 26.9° (Epoch: 02 December)

Event Time Altitude Azimuth Distance (km) Brightness Sun altitude
Rises 22:27:00 0° 98° (E) 27,902 9.2 -51.4°
Reaches altitude 10° 23:35:04 10° 96° (E) 34,863 9.8 -53.8°
Maximum altitude 04:57:38 42° 112° (ESE) 28,386 9.9 -16.1°
Drops below altitude 10° 06:41:41 10° 94° (E) 12,858 9.3 0.1°
Sets 06:49:05 0° 90° (E) 11,924 9.0 1.2°
